When you browse on this site, cookies collect data to enhance your experience and personalize the content and advertising you see.
Visit our Privacy Policy to learn more. By continuing to use the site, you agree to this use of cookies and data.
  • în România
  • Lista ţărilor
  • Pe 7 zile
  • Temperatura apei
  • Meteo pe hartă
  • Widget-uri
  • user-avatar
    Intrare

    Meteo pe oră la Yulara

    Astăzi, 18 Noiembrie, Luni

    Timp Temperatura Precipitaţii Vânt Presiune Umiditate
    00:00 +22°C° 0 mm 4 m/s 719 mmHg 17%
    01:00 +21°C° 0 mm 4 m/s 719 mmHg 19%
    02:00 +21°C° 0 mm 4 m/s 718 mmHg 20%
    03:00 +20°C° 0 mm 4 m/s 718 mmHg 22%
    04:00 +20°C° 0 mm 4 m/s 718 mmHg 22%
    05:00 +20°C° 0 mm 4 m/s 719 mmHg 23%
    06:00 +20°C° 0 mm 4 m/s 719 mmHg 23%
    07:00 +25°C° 0 mm 5 m/s 720 mmHg 19%
    08:00 +28°C° 0 mm 5 m/s 720 mmHg 16%
    09:00 +33°C° 0 mm 6 m/s 721 mmHg 11%
    10:00 +35°C° 0 mm 5 m/s 720 mmHg 10%
    11:00 +37°C° 0 mm 5 m/s 720 mmHg 9%
    12:00 +38°C° 0 mm 4 m/s 719 mmHg 8%
    13:00 +40°C° 0 mm 4 m/s 718 mmHg 7%
    14:00 +40°C° 0 mm 4 m/s 718 mmHg 7%
    15:00 +40°C° 0 mm 3 m/s 717 mmHg 6%
    16:00 +40°C° 0 mm 3 m/s 717 mmHg 7%
    17:00 +39°C° 0 mm 3 m/s 717 mmHg 7%
    18:00 +38°C° 0 mm 3 m/s 717 mmHg 7%
    19:00 +35°C° 0 mm 3 m/s 717 mmHg 9%
    20:00 +33°C° 0 mm 4 m/s 717 mmHg 10%
    21:00 +29°C° 0 mm 4 m/s 717 mmHg 11%
    22:00 +28°C° 0 mm 4 m/s 717 mmHg 12%
    23:00 +26°C° 0 mm 4 m/s 717 mmHg 13%

    Mâine, 19 Noiembrie, Marţi

    Timp Temperatura Precipitaţii Vânt Presiune Umiditate
    00:00 +25°C° 0 mm 4 m/s 717 mmHg 13%
    01:00 +23°C° 0 mm 4 m/s 716 mmHg 14%
    02:00 +22°C° 0 mm 4 m/s 716 mmHg 15%
    03:00 +22°C° 0 mm 4 m/s 715 mmHg 15%
    04:00 +21°C° 0 mm 4 m/s 716 mmHg 15%
    05:00 +21°C° 0 mm 4 m/s 716 mmHg 16%
    06:00 +21°C° 0 mm 3 m/s 716 mmHg 16%
    07:00 +26°C° 0 mm 4 m/s 717 mmHg 13%
    08:00 +30°C° 0 mm 4 m/s 717 mmHg 11%
    09:00 +35°C° 0 mm 5 m/s 717 mmHg 8%
    10:00 +37°C° 0 mm 4 m/s 717 mmHg 7%
    11:00 +38°C° 0 mm 3 m/s 716 mmHg 7%
    12:00 +40°C° 0 mm 2 m/s 716 mmHg 6%
    13:00 +40°C° 0 mm 2 m/s 715 mmHg 6%
    14:00 +41°C° 0 mm 1 m/s 714 mmHg 5%
    15:00 +41°C° 0 mm 1 m/s 713 mmHg 5%
    16:00 +41°C° 0 mm 1 m/s 713 mmHg 6%
    17:00 +40°C° 0 mm 1 m/s 713 mmHg 6%
    18:00 +39°C° 0 mm 1 m/s 713 mmHg 7%
    19:00 +37°C° 0 mm 2 m/s 713 mmHg 8%
    20:00 +34°C° 0 mm 3 m/s 713 mmHg 8%
    21:00 +30°C° 0 mm 4 m/s 714 mmHg 9%
    22:00 +29°C° 0 mm 5 m/s 713 mmHg 9%
    23:00 +28°C° 0 mm 5 m/s 713 mmHg 10%

    Poimâine, 20 Noiembrie, Miercuri

    Timp Temperatura Precipitaţii Vânt Presiune Umiditate
    00:00 +27°C° 0 mm 5 m/s 713 mmHg 10%
    01:00 +26°C° 0 mm 5 m/s 713 mmHg 11%
    02:00 +25°C° 0 mm 4 m/s 712 mmHg 11%
    03:00 +23°C° 0 mm 4 m/s 712 mmHg 11%
    04:00 +23°C° 0 mm 4 m/s 712 mmHg 12%
    05:00 +25°C° 0 mm 4 m/s 713 mmHg 12%
    06:00 +25°C° 0 mm 4 m/s 713 mmHg 12%
    07:00 +29°C° 0 mm 5 m/s 713 mmHg 10%
    08:00 +34°C° 0 mm 6 m/s 713 mmHg 8%
    09:00 +39°C° 0 mm 7 m/s 714 mmHg 6%
    10:00 +41°C° 0 mm 7 m/s 713 mmHg 5%
    11:00 +44°C° 0 mm 7 m/s 713 mmHg 4%
    12:00 +46°C° 0 mm 8 m/s 713 mmHg 4%
    13:00 +46°C° 0 mm 8 m/s 712 mmHg 4%
    14:00 +46°C° 0 mm 8 m/s 712 mmHg 4%
    15:00 +46°C° 0 mm 8 m/s 711 mmHg 4%
    16:00 +45°C° 0 mm 8 m/s 711 mmHg 4%
    17:00 +44°C° 0 mm 7 m/s 711 mmHg 5%
    18:00 +43°C° 0 mm 7 m/s 711 mmHg 6%
    19:00 +40°C° 0 mm 6 m/s 711 mmHg 7%
    20:00 +36°C° 0 mm 5 m/s 711 mmHg 9%
    21:00 +33°C° 0 mm 4 m/s 712 mmHg 10%
    22:00 +32°C° 0 mm 7 m/s 712 mmHg 16%
    23:00 +32°C° 0 mm 9 m/s 713 mmHg 21%

    21 Noiembrie, Joi

    Timp Temperatura Precipitaţii Vânt Presiune Umiditate
    00:00 +31°C° 0 mm 12 m/s 713 mmHg 26%
    01:00 +27°C° 0 mm 10 m/s 713 mmHg 35%
    02:00 +24°C° 0 mm 9 m/s 713 mmHg 43%
    03:00 +21°C° 0 mm 7 m/s 713 mmHg 51%
    04:00 +21°C° 0 mm 7 m/s 713 mmHg 53%
    05:00 +20°C° 0 mm 7 m/s 714 mmHg 56%
    06:00 +18°C° 0 mm 7 m/s 715 mmHg 58%
    07:00 +21°C° 0 mm 7 m/s 716 mmHg 52%
    08:00 +22°C° 0 mm 7 m/s 716 mmHg 46%
    09:00 +24°C° 0 mm 7 m/s 717 mmHg 40%
    10:00 +27°C° 0 mm 6 m/s 717 mmHg 35%
    11:00 +30°C° 0 mm 6 m/s 717 mmHg 29%
    12:00 +33°C° 0 mm 5 m/s 717 mmHg 24%
    13:00 +34°C° 0 mm 5 m/s 716 mmHg 22%
    14:00 +35°C° 0 mm 4 m/s 716 mmHg 21%
    15:00 +36°C° 0 mm 4 m/s 715 mmHg 19%
    16:00 +35°C° 0 mm 4 m/s 715 mmHg 19%
    17:00 +35°C° 0 mm 5 m/s 716 mmHg 19%
    18:00 +35°C° 0 mm 5 m/s 716 mmHg 19%
    19:00 +32°C° 0 mm 5 m/s 716 mmHg 21%
    20:00 +29°C° 0 mm 5 m/s 716 mmHg 23%
    21:00 +27°C° 0 mm 5 m/s 717 mmHg 25%
    22:00 +26°C° 0 mm 5 m/s 717 mmHg 26%
    23:00 +25°C° 0 mm 5 m/s 717 mmHg 26%

    22 Noiembrie, Vineri

    Timp Temperatura Precipitaţii Vânt Presiune Umiditate
    00:00 +24°C° 0 mm 6 m/s 717 mmHg 26%
    01:00 +22°C° 0 mm 5 m/s 717 mmHg 27%
    02:00 +21°C° 0 mm 5 m/s 717 mmHg 27%
    03:00 +20°C° 0 mm 5 m/s 717 mmHg 28%
    04:00 +20°C° 0 mm 5 m/s 717 mmHg 29%
    05:00 +20°C° 0 mm 6 m/s 717 mmHg 29%
    06:00 +20°C° 0 mm 7 m/s 717 mmHg 29%
    07:00 +22°C° 0 mm 7 m/s 718 mmHg 27%
    08:00 +26°C° 0 mm 8 m/s 719 mmHg 25%
    09:00 +28°C° 0 mm 9 m/s 719 mmHg 22%
    10:00 +31°C° 0 mm 8 m/s 719 mmHg 20%
    11:00 +33°C° 0 mm 7 m/s 719 mmHg 18%
    12:00 +35°C° 0 mm 6 m/s 719 mmHg 16%
    13:00 +36°C° 0 mm 5 m/s 718 mmHg 15%
    14:00 +37°C° 0 mm 4 m/s 717 mmHg 14%
    15:00 +38°C° 0 mm 3 m/s 717 mmHg 13%
    16:00 +38°C° 0 mm 3 m/s 717 mmHg 14%
    17:00 +37°C° 0 mm 3 m/s 716 mmHg 14%
    18:00 +37°C° 0 mm 2 m/s 716 mmHg 14%
    19:00 +35°C° 0 mm 4 m/s 717 mmHg 15%
    20:00 +32°C° 0 mm 5 m/s 717 mmHg 16%
    21:00 +29°C° 0 mm 6 m/s 717 mmHg 17%
    22:00 +28°C° 0 mm 5 m/s 718 mmHg 17%
    23:00 +26°C° 0 mm 5 m/s 718 mmHg 17%

    23 Noiembrie, Sâmbătă

    Timp Temperatura Precipitaţii Vânt Presiune Umiditate
    00:00 +25°C° 0 mm 5 m/s 718 mmHg 16%
    01:00 +23°C° 0 mm 5 m/s 717 mmHg 16%
    02:00 +22°C° 0 mm 5 m/s 717 mmHg 16%
    03:00 +22°C° 0 mm 5 m/s 717 mmHg 16%
    04:00 +22°C° 0 mm 5 m/s 717 mmHg 16%
    05:00 +21°C° 0 mm 5 m/s 718 mmHg 16%
    06:00 +21°C° 0 mm 6 m/s 718 mmHg 16%
    07:00 +24°C° 0 mm 7 m/s 719 mmHg 14%
    08:00 +28°C° 0 mm 7 m/s 719 mmHg 12%
    09:00 +32°C° 0 mm 8 m/s 719 mmHg 10%
    10:00 +34°C° 0 mm 7 m/s 719 mmHg 10%
    11:00 +36°C° 0 mm 7 m/s 719 mmHg 9%
    12:00 +38°C° 0 mm 6 m/s 718 mmHg 9%
    13:00 +39°C° 0 mm 5 m/s 718 mmHg 9%
    14:00 +40°C° 0 mm 5 m/s 717 mmHg 8%
    15:00 +40°C° 0 mm 4 m/s 716 mmHg 8%
    16:00 +40°C° 0 mm 4 m/s 716 mmHg 9%
    17:00 +38°C° 0 mm 4 m/s 716 mmHg 9%
    18:00 +38°C° 0 mm 4 m/s 716 mmHg 9%
    19:00 +35°C° 0 mm 5 m/s 717 mmHg 11%
    20:00 +32°C° 0 mm 6 m/s 717 mmHg 12%
    21:00 +28°C° 0 mm 7 m/s 717 mmHg 13%
    22:00 +28°C° 0 mm 7 m/s 717 mmHg 14%
    23:00 +27°C° 0 mm 7 m/s 717 mmHg 14%
    Arată mai mult